This is the latest recevied weather packets stored in our database for station/object K6CQU-13. If no packets are shown the sender has not sent any weather packets the latest 10 day(s).
| Time | Temp. | Humidity | Pressure | Rain* | Wind** | Luminosity | Snow |
|---|---|---|---|---|---|---|---|
| 1777997417 | 13.33° C | 88% | 1015.4 hPa | 0 mm | - | 67 W/m² | - |
| 1777996817 | 13.33° C | 88% | 1015.3 hPa | 0 mm | - | 79 W/m² | - |
| 1777996517 | 13.33° C | 88% | 1015.3 hPa | 0 mm | - | 79 W/m² | - |
| 1777995617 | 12.78° C | 88% | 1015.2 hPa | 0 mm | - | 50 W/m² | - |
| 1777995317 | 12.78° C | 88% | 1015.2 hPa | 0 mm | - | 49 W/m² | - |
| 1777995017 | 12.78° C | 89% | 1015.1 hPa | 0 mm | - | 44 W/m² | - |
| 1777994717 | 12.78° C | 89% | 1015.1 hPa | 0 mm | - | 39 W/m² | - |
| 1777994117 | 12.78° C | 90% | 1014.9 hPa | 0 mm | - | 45 W/m² | - |
| 1777993817 | 12.78° C | 90% | 1014.9 hPa | 0 mm | - | 40 W/m² | - |
| 1777993517 | 12.22° C | 90% | 1014.9 hPa | 0 mm | - | 34 W/m² | - |
| 1777992317 | 12.22° C | 92% | 1014.6 hPa | 0 mm | - | 31 W/m² | - |
| 1777991717 | 12.22° C | 92% | 1014.6 hPa | 0 mm | - | 32 W/m² | - |
| 1777991116 | 11.67° C | 93% | 1014.4 hPa | 0 mm | - | 25 W/m² | - |
| 1777990817 | 11.67° C | 93% | 1014.4 hPa | 0 mm | - | 26 W/m² | - |
| 1777990217 | 11.67° C | 94% | 1014.4 hPa | 0 mm | - | 26 W/m² | - |
| 1777989916 | 11.67° C | 94% | 1014.5 hPa | 0 mm | - | 23 W/m² | - |
| 1777989317 | 11.67° C | 94% | 1014.4 hPa | 0 mm | - | 17 W/m² | - |
| 1777989017 | 11.67° C | 94% | 1014.3 hPa | 0 mm | - | 19 W/m² | - |
| 1777988417 | 11.67° C | 94% | 1014.2 hPa | 0 mm | - | 20 W/m² | - |
| 1777988116 | 11.67° C | 94% | 1014.2 hPa | 0 mm | - | 18 W/m² | - |
| 1777987817 | 11.67° C | 94% | 1014.2 hPa | 0 mm | - | 15 W/m² | - |
| 1777987517 | 11.67° C | 94% | 1014.1 hPa | 0 mm | - | 12 W/m² | - |
| 1777987216 | 11.67° C | 94% | 1014 hPa | 0 mm | - | 9 W/m² | - |
| 1777986916 | 11.67° C | 94% | 1014 hPa | 0 mm | - | 4 W/m² | - |
| 1777986616 | 11.67° C | 94% | 1014.1 hPa | 0 mm | - | 0 W/m² | - |
* Rain latest hour (hover to see other rain measurements)
** Current wind speed in m/s (hover to see current wind gust speed)